| time (UTC) | temp C | wind direction | speed KPH | gust KPH | rain 1hr cm | rain 24hr cm | rain mn cm | humidity % | barometer mb |
| 20260503013223 | 19 | 13 | 1.6 | 9.7 | 0.00 | 0.00 | 0.00 | 22 | 1007.3 |
| 20260503012723 | 19 | 42 | 1.6 | 6.4 | 0.00 | 0.00 | 0.00 | 22 | 1007.3 |
| 20260503012223 | 19 | 42 | 1.6 | 4.8 | 0.00 | 0.00 | 0.00 | 21 | 1007.2 |
| 20260503011723 | 20 | 42 | 3.2 | 8.0 | 0.00 | 0.00 | 0.00 | 21 | 1007.2 |
| 20260503011223 | 20 | 31 | 1.6 | 9.7 | 0.00 | 0.00 | 0.00 | 21 | 1007.2 |
| 20260503010723 | 20 | 38 | 1.6 | 6.4 | 0.00 | 0.00 | 0.00 | 21 | 1007.1 |
| 20260503010223 | 20 | 40 | 1.6 | 11.3 | 0.00 | 0.00 | 0.00 | 19 | 1007.1 |
| 20260503005723 | 20 | 55 | 1.6 | 4.8 | 0.00 | 0.00 | 0.00 | 20 | 1007.2 |
| 20260503005223 | 20 | 78 | 1.6 | 9.7 | 0.00 | 0.00 | 0.00 | 20 | 1007.2 |
| 20260503004723 | 20 | 97 | 0.0 | 8.0 | 0.00 | 0.00 | 0.00 | 19 | 1007.3 |
| 20260503004223 | 20 | 100 | 0.0 | 4.8 | 0.00 | 0.00 | 0.00 | 18 | 1007.2 |
| 20260503003723 | 21 | 100 | 0.0 | 4.8 | 0.00 | 0.00 | 0.00 | 17 | 1007.2 |
| 20260503003223 | 21 | 101 | 0.0 | 4.8 | 0.00 | 0.00 | 0.00 | 16 | 1007.2 |
| 20260503002723 | 21 | 102 | 0.0 | 0.0 | 0.00 | 0.00 | 0.00 | 16 | 1007.2 |
| 20260503002223 | 21 | 102 | 0.0 | 3.2 | 0.00 | 0.00 | 0.00 | 16 | 1007.3 |
| 20260503001723 | 21 | 103 | 0.0 | 4.8 | 0.00 | 0.00 | 0.00 | 16 | 1007.2 |
| 20260503001223 | 21 | 99 | 0.0 | 8.0 | 0.00 | 0.00 | 0.00 | 16 | 1007.2 |
| 20260503000723 | 21 | 101 | 1.6 | 1.6 | 0.00 | 0.00 | 0.00 | 17 | 1007.3 |
| 20260503000225 | 21 | 101 | 1.6 | 8.0 | 0.00 | 0.00 | 0.00 | 15 | 1007.3 |
| 20260502235724 | 21 | 86 | 1.6 | 11.3 | 0.00 | 0.00 | 0.00 | 15 | 1007.4 |
| 20260502235223 | 21 | 136 | 1.6 | 8.0 | 0.00 | 0.00 | 0.00 | 15 | 1007.4 |
| 20260502234723 | 22 | 132 | 0.0 | 8.0 | 0.00 | 0.00 | 0.00 | 15 | 1007.5 |
| 20260502234223 | 22 | 150 | 0.0 | 3.2 | 0.00 | 0.00 | 0.00 | 17 | 1007.4 |
| 20260502233723 | 21 | 149 | 1.6 | 3.2 | 0.00 | 0.00 | 0.00 | 17 | 1007.4 |
| 20260502233223 | 21 | 151 | 3.2 | 9.7 | 0.00 | 0.00 | 0.00 | 16 | 1007.5 |
| 20260502232723 | 21 | 190 | 3.2 | 6.4 | 0.00 | 0.00 | 0.00 | 16 | 1007.4 |
| 20260502232223 | 21 | 180 | 3.2 | 9.7 | 0.00 | 0.00 | 0.00 | 17 | 1007.5 |
| 20260502231723 | 21 | 173 | 3.2 | 9.7 | 0.00 | 0.00 | 0.00 | 17 | 1007.6 |
| 20260502231223 | 21 | 167 | 3.2 | 9.7 | 0.00 | 0.00 | 0.00 | 18 | 1007.6 |
| 20260502230723 | 21 | 160 | 3.2 | 8.0 | 0.00 | 0.00 | 0.00 | 18 | 1007.6 |
| 20260502230223 | 21 | 153 | 3.2 | 11.3 | 0.00 | 0.00 | 0.00 | 17 | 1007.7 |
| 20260502225723 | 21 | 160 | 4.8 | 12.9 | 0.00 | 0.00 | 0.00 | 18 | 1007.7 |
| 20260502225223 | 21 | 164 | 3.2 | 11.3 | 0.00 | 0.00 | 0.00 | 18 | 1007.8 |
| 20260502224723 | 21 | 209 | 4.8 | 12.9 | 0.00 | 0.00 | 0.00 | 18 | 1007.8 |
| 20260502224223 | 21 | 198 | 3.2 | 8.0 | 0.00 | 0.00 | 0.00 | 19 | 1007.9 |
| 20260502223723 | 21 | 202 | 1.6 | 9.7 | 0.00 | 0.00 | 0.00 | 18 | 1008.1 |
| 20260502223223 | 21 | 188 | 1.6 | 4.8 | 0.00 | 0.00 | 0.00 | 18 | 1008.2 |
| 20260502222723 | 21 | 188 | 1.6 | 6.4 | 0.00 | 0.00 | 0.00 | 18 | 1008.3 |
| 20260502222223 | 21 | 202 | 1.6 | 6.4 | 0.00 | 0.00 | 0.00 | 19 | 1008.4 |
| 20260502221723 | 21 | 200 | 3.2 | 11.3 | 0.00 | 0.00 | 0.00 | 18 | 1008.5 |
| 20260502221223 | 21 | 161 | 1.6 | 9.7 | 0.00 | 0.00 | 0.00 | 18 | 1008.5 |
| 20260502220723 | 21 | 153 | 1.6 | 9.7 | 0.00 | 0.00 | 0.00 | 18 | 1008.7 |
| 20260502220223 | 21 | 196 | 3.2 | 6.4 | 0.00 | 0.00 | 0.00 | 19 | 1008.8 |
| 20260502215724 | 21 | 196 | 3.2 | 8.0 | 0.00 | 0.00 | 0.00 | 19 | 1008.8 |
| 20260502215223 | 21 | 175 | 4.8 | 11.3 | 0.00 | 0.00 | 0.00 | 19 | 1009.0 |
| 20260502214723 | 21 | 197 | 4.8 | 9.7 | 0.00 | 0.00 | 0.00 | 18 | 1009.1 |
| 20260502214223 | 21 | 174 | 4.8 | 11.3 | 0.00 | 0.00 | 0.00 | 17 | 1009.1 |
| 20260502213724 | 21 | 102 | 4.8 | 11.3 | 0.00 | 0.00 | 0.00 | 16 | 1009.1 |
| 20260502213223 | 21 | 171 | 6.4 | 12.9 | 0.00 | 0.00 | 0.00 | 17 | 1009.4 |
| 20260502212723 | 21 | 161 | 4.8 | 17.7 | 0.00 | 0.00 | 0.00 | 18 | 1009.4 |
| 20260502212224 | 21 | 222 | 6.4 | 12.9 | 0.00 | 0.00 | 0.00 | 16 | 1009.6 |
| 20260502211724 | 21 | 220 | 8.0 | 12.9 | 0.00 | 0.00 | 0.00 | 17 | 1009.6 |
| 20260502211223 | 21 | 186 | 6.4 | 14.5 | 0.00 | 0.00 | 0.00 | 16 | 1009.7 |
| 20260502210724 | 21 | 148 | 8.0 | 16.1 | 0.00 | 0.00 | 0.00 | 16 | 1009.9 |
| 20260502210224 | 21 | 213 | 6.4 | 17.7 | 0.00 | 0.00 | 0.00 | 15 | 1009.8 |
| 20260502205724 | 21 | 134 | 6.4 | 16.1 | 0.00 | 0.00 | 0.00 | 17 | 1010.0 |
| 20260502205224 | 21 | 209 | 4.8 | 11.3 | 0.00 | 0.00 | 0.00 | 18 | 1010.1 |
| 20260502204724 | 21 | 201 | 4.8 | 9.7 | 0.00 | 0.00 | 0.00 | 17 | 1010.1 |
| 20260502204224 | 21 | 175 | 4.8 | 17.7 | 0.00 | 0.00 | 0.00 | 18 | 1010.2 |
| 20260502203724 | 21 | 180 | 6.4 | 9.7 | 0.00 | 0.00 | 0.00 | 18 | 1010.3 |
| 20260502203224 | 21 | 203 | 8.0 | 17.7 | 0.00 | 0.00 | 0.00 | 17 | 1010.4 |
| 20260502202724 | 21 | 152 | 6.4 | 12.9 | 0.00 | 0.00 | 0.00 | 18 | 1010.4 |
| 20260502202224 | 21 | 149 | 6.4 | 17.7 | 0.00 | 0.00 | 0.00 | 19 | 1010.4 |
| 20260502201724 | 21 | 207 | 6.4 | 19.3 | 0.00 | 0.00 | 0.00 | 20 | 1010.6 |
| 20260502201224 | 21 | 145 | 4.8 | 19.3 | 0.00 | 0.00 | 0.00 | 19 | 1010.7 |
| 20260502200724 | 21 | 172 | 4.8 | 11.3 | 0.00 | 0.00 | 0.00 | 19 | 1010.8 |
| 20260502200224 | 21 | 165 | 4.8 | 8.0 | 0.00 | 0.00 | 0.00 | 17 | 1011.0 |
| 20260502195724 | 20 | 200 | 4.8 | 11.3 | 0.00 | 0.00 | 0.00 | 21 | 1011.0 |
| 20260502195224 | 20 | 141 | 4.8 | 14.5 | 0.00 | 0.00 | 0.00 | 16 | 1011.1 |
| 20260502194724 | 20 | 178 | 4.8 | 9.7 | 0.00 | 0.00 | 0.00 | 20 | 1011.1 |
| 20260502194224 | 20 | 221 | 4.8 | 11.3 | 0.00 | 0.00 | 0.00 | 20 | 1011.2 |
| 20260502193724 | 20 | 148 | 4.8 | 16.1 | 0.00 | 0.00 | 0.00 | 19 | 1011.2 |
| 20260502193224 | 20 | 212 | 4.8 | 11.3 | 0.00 | 0.00 | 0.00 | 19 | 1011.3 |
| 20260502192724 | 20 | 188 | 4.8 | 9.7 | 0.00 | 0.00 | 0.00 | 19 | 1011.3 |
| 20260502192224 | 20 | 202 | 4.8 | 11.3 | 0.00 | 0.00 | 0.00 | 21 | 1011.4 |
| 20260502191724 | 20 | 195 | 4.8 | 12.9 | 0.00 | 0.00 | 0.00 | 20 | 1011.5 |
| 20260502191224 | 20 | 216 | 4.8 | 17.7 | 0.00 | 0.00 | 0.00 | 20 | 1011.6 |
| 20260502190724 | 20 | 167 | 4.8 | 16.1 | 0.00 | 0.00 | 0.00 | 19 | 1011.8 |
| 20260502190224 | 20 | 169 | 4.8 | 14.5 | 0.00 | 0.00 | 0.00 | 19 | 1011.8 |
| 20260502185724 | 20 | 191 | 4.8 | 11.3 | 0.00 | 0.00 | 0.00 | 20 | 1012.0 |
| 20260502185224 | 20 | 234 | 3.2 | 9.7 | 0.00 | 0.00 | 0.00 | 21 | 1012.1 |
| 20260502184724 | 20 | 235 | 3.2 | 9.7 | 0.00 | 0.00 | 0.00 | 20 | 1012.2 |
| 20260502184224 | 20 | 235 | 4.8 | 9.7 | 0.00 | 0.00 | 0.00 | 19 | 1012.3 |
| 20260502183724 | 20 | 236 | 4.8 | 8.0 | 0.00 | 0.00 | 0.00 | 19 | 1012.4 |
| 20260502183224 | 19 | 236 | 4.8 | 11.3 | 0.00 | 0.00 | 0.00 | 19 | 1012.4 |
| 20260502182724 | 19 | 238 | 4.8 | 14.5 | 0.00 | 0.00 | 0.00 | 20 | 1012.4 |
| 20260502182224 | 19 | 244 | 4.8 | 14.5 | 0.00 | 0.00 | 0.00 | 19 | 1012.6 |
| 20260502181724 | 19 | 245 | 4.8 | 9.7 | 0.00 | 0.00 | 0.00 | 20 | 1012.6 |
| 20260502181224 | 19 | 245 | 4.8 | 9.7 | 0.00 | 0.00 | 0.00 | 19 | 1012.8 |
| 20260502180724 | 19 | 248 | 4.8 | 9.7 | 0.00 | 0.00 | 0.00 | 19 | 1012.8 |
| 20260502180224 | 19 | 250 | 3.2 | 9.7 | 0.00 | 0.00 | 0.00 | 20 | 1012.9 |
| 20260502170224 | 18 | 277 | 3.2 | 6.4 | 0.00 | 0.00 | 0.00 | 23 | 1013.0 |
| 20260502164224 | 17 | 227 | 3.2 | 8.0 | 0.00 | 0.00 | 0.00 | 26 | 1013.1 |
| 20260502163724 | 17 | 199 | 3.2 | 8.0 | 0.00 | 0.00 | 0.00 | 25 | 1013.1 |
| 20260502163224 | 17 | 202 | 3.2 | 9.7 | 0.00 | 0.00 | 0.00 | 26 | 1013.1 |
| 20260502162724 | 17 | 214 | 3.2 | 8.0 | 0.00 | 0.00 | 0.00 | 25 | 1013.1 |
| 20260502162224 | 17 | 197 | 3.2 | 11.3 | 0.00 | 0.00 | 0.00 | 24 | 1013.2 |
| 20260502161724 | 17 | 193 | 3.2 | 8.0 | 0.00 | 0.00 | 0.00 | 26 | 1013.1 |
| 20260502161224 | 16 | 217 | 3.2 | 8.0 | 0.00 | 0.00 | 0.00 | 26 | 1013.1 |
| 20260502160724 | 16 | 220 | 4.8 | 9.7 | 0.00 | 0.00 | 0.00 | 26 | 1013.1 |
| 20260502160224 | 16 | 210 | 4.8 | 8.0 | 0.00 | 0.00 | 0.00 | 26 | 1013.2 |
| 20260502152224 | 16 | 200 | 3.2 | 8.0 | 0.00 | 0.00 | 0.00 | 27 | 1013.3 |
| 20260502151724 | 16 | 183 | 1.6 | 6.4 | 0.00 | 0.00 | 0.00 | 27 | 1013.3 |
| 20260502151224 | 16 | 178 | 1.6 | 6.4 | 0.00 | 0.00 | 0.00 | 28 | 1013.3 |
| 20260502150724 | 16 | 165 | 1.6 | 8.0 | 0.00 | 0.00 | 0.00 | 28 | 1013.3 |
| 20260502150224 | 15 | 46 | 0.0 | 6.4 | 0.00 | 0.00 | 0.00 | 29 | 1013.4 |
| 20260502130724 | 7 | 44 | 0.0 | 0.0 | 0.00 | 0.00 | 0.00 | 50 | 1013.4 |
| 20260502130224 | 7 | 44 | 0.0 | 0.0 | 0.00 | 0.00 | 0.00 | 49 | 1013.4 |
| 20260502123724 | 7 | 44 | 0.0 | 3.2 | 0.00 | 0.00 | 0.00 | 49 | 1013.4 |
| 20260502123224 | 7 | 44 | 1.6 | 3.2 | 0.00 | 0.00 | 0.00 | 48 | 1013.3 |
| 20260502122724 | 6 | 44 | 0.0 | 4.8 | 0.00 | 0.00 | 0.00 | 48 | 1013.2 |
| 20260502122224 | 7 | 44 | 0.0 | 0.0 | 0.00 | 0.00 | 0.00 | 49 | 1013.3 |
| 20260502121724 | 7 | 44 | 0.0 | 0.0 | 0.00 | 0.00 | 0.00 | 48 | 1013.2 |
| 20260502121224 | 7 | 44 | 0.0 | 0.0 | 0.00 | 0.00 | 0.00 | 48 | 1013.2 |
| 20260502120724 | 7 | 44 | 0.0 | 0.0 | 0.00 | 0.00 | 0.00 | 48 | 1013.2 |
| 20260502120224 | 7 | 44 | 0.0 | 0.0 | 0.00 | 0.00 | 0.00 | 48 | 1013.2 |
| 20260502115724 | 7 | 44 | 0.0 | 0.0 | 0.00 | 0.00 | 0.00 | 48 | 1013.1 |
| 20260502115224 | 7 | 44 | 0.0 | 0.0 | 0.00 | 0.00 | 0.00 | 48 | 1013.2 |
| 20260502114724 | 7 | 44 | 0.0 | 0.0 | 0.00 | 0.00 | 0.00 | 48 | 1013.2 |
| 20260502114224 | 7 | 44 | 0.0 | 0.0 | 0.00 | 0.00 | 0.00 | 48 | 1013.2 |
| 20260502113724 | 7 | 44 | 0.0 | 0.0 | 0.00 | 0.00 | 0.00 | 48 | 1013.2 |
| 20260502113224 | 7 | 44 | 0.0 | 0.0 | 0.00 | 0.00 | 0.00 | 48 | 1013.1 |
| 20260502112724 | 7 | 44 | 0.0 | 0.0 | 0.00 | 0.00 | 0.00 | 48 | 1013.2 |
| 20260502112225 | 7 | 44 | 0.0 | 0.0 | 0.00 | 0.00 | 0.00 | 48 | 1013.3 |
| 20260502111724 | 7 | 44 | 0.0 | 0.0 | 0.00 | 0.00 | 0.00 | 48 | 1013.3 |
| 20260502111224 | 7 | 44 | 0.0 | 0.0 | 0.00 | 0.00 | 0.00 | 47 | 1013.3 |
| 20260502110724 | 7 | 44 | 0.0 | 0.0 | 0.00 | 0.00 | 0.00 | 49 | 1013.3 |
| 20260502110224 | 7 | 44 | 0.0 | 0.0 | 0.00 | 0.00 | 0.00 | 48 | 1013.3 |
| 20260502105724 | 7 | 44 | 0.0 | 0.0 | 0.00 | 0.00 | 0.00 | 47 | 1013.3 |
| 20260502105224 | 7 | 44 | 0.0 | 0.0 | 0.00 | 0.00 | 0.00 | 47 | 1013.3 |
| 20260502104725 | 7 | 44 | 0.0 | 0.0 | 0.00 | 0.00 | 0.00 | 47 | 1013.3 |
| 20260502104225 | 7 | 44 | 0.0 | 0.0 | 0.00 | 0.00 | 0.00 | 47 | 1013.3 |
| 20260502103725 | 7 | 44 | 0.0 | 0.0 | 0.00 | 0.00 | 0.00 | 47 | 1013.3 |
| 20260502103225 | 7 | 44 | 0.0 | 0.0 | 0.00 | 0.00 | 0.00 | 46 | 1013.3 |
| 20260502102725 | 7 | 44 | 0.0 | 0.0 | 0.00 | 0.00 | 0.00 | 46 | 1013.2 |
| 20260502102225 | 7 | 44 | 0.0 | 0.0 | 0.00 | 0.00 | 0.00 | 46 | 1013.2 |
| 20260502101725 | 8 | 44 | 0.0 | 0.0 | 0.00 | 0.00 | 0.00 | 46 | 1013.2 |
| 20260502101225 | 8 | 44 | 0.0 | 0.0 | 0.00 | 0.00 | 0.00 | 45 | 1013.1 |
| 20260502100725 | 8 | 44 | 0.0 | 0.0 | 0.00 | 0.00 | 0.00 | 45 | 1013.0 |
| 20260502100225 | 8 | 44 | 0.0 | 0.0 | 0.00 | 0.00 | 0.00 | 45 | 1013.0 |
| 20260502091225 | 9 | 44 | 0.0 | 0.0 | 0.00 | 0.00 | 0.00 | 43 | 1012.9 |
| 20260502090725 | 8 | 44 | 0.0 | 0.0 | 0.00 | 0.00 | 0.00 | 42 | 1012.9 |
| 20260502090225 | 8 | 44 | 0.0 | 0.0 | 0.00 | 0.00 | 0.00 | 43 | 1013.0 |
| 20260502071225 | 8 | 44 | 0.0 | 0.0 | 0.00 | 0.00 | 0.00 | 42 | 1013.4 |
| 20260502070725 | 9 | 44 | 0.0 | 0.0 | 0.00 | 0.00 | 0.00 | 42 | 1013.4 |
| 20260502070225 | 9 | 44 | 0.0 | 0.0 | 0.00 | 0.00 | 0.00 | 42 | 1013.4 |
| 20260502065725 | 9 | 44 | 0.0 | 0.0 | 0.00 | 0.00 | 0.00 | 41 | 1013.4 |
| 20260502065225 | 9 | 44 | 0.0 | 0.0 | 0.00 | 0.00 | 0.00 | 39 | 1013.4 |
| 20260502064725 | 9 | 44 | 0.0 | 0.0 | 0.00 | 0.00 | 0.00 | 41 | 1013.4 |
| 20260502064225 | 9 | 44 | 0.0 | 0.0 | 0.00 | 0.00 | 0.00 | 40 | 1013.3 |
| 20260502063725 | 8 | 44 | 0.0 | 0.0 | 0.00 | 0.00 | 0.00 | 43 | 1013.2 |
| 20260502063225 | 9 | 44 | 0.0 | 0.0 | 0.00 | 0.00 | 0.00 | 42 | 1013.3 |
| 20260502062725 | 9 | 44 | 0.0 | 0.0 | 0.00 | 0.00 | 0.00 | 41 | 1013.3 |
| 20260502062225 | 9 | 44 | 0.0 | 0.0 | 0.00 | 0.00 | 0.00 | 39 | 1013.2 |
| 20260502061725 | 9 | 44 | 0.0 | 0.0 | 0.00 | 0.00 | 0.00 | 39 | 1013.2 |
| 20260502061225 | 10 | 44 | 0.0 | 0.0 | 0.00 | 0.00 | 0.00 | 39 | 1013.2 |
| 20260502060725 | 10 | 44 | 0.0 | 0.0 | 0.00 | 0.00 | 0.00 | 40 | 1013.1 |
| 20260502060225 | 10 | 44 | 0.0 | 0.0 | 0.00 | 0.00 | 0.00 | 40 | 1013.1 |
| 20260502055725 | 10 | 44 | 0.0 | 0.0 | 0.00 | 0.00 | 0.00 | 39 | 1013.1 |
| 20260502055225 | 10 | 44 | 0.0 | 0.0 | 0.00 | 0.00 | 0.00 | 39 | 1013.1 |
| 20260502054725 | 10 | 44 | 0.0 | 0.0 | 0.00 | 0.00 | 0.00 | 41 | 1013.0 |
| 20260502054225 | 10 | 44 | 0.0 | 0.0 | 0.00 | 0.00 | 0.00 | 39 | 1013.0 |
| 20260502053725 | 10 | 44 | 0.0 | 0.0 | 0.00 | 0.00 | 0.00 | 38 | 1013.1 |
| 20260502053225 | 10 | 44 | 0.0 | 0.0 | 0.00 | 0.00 | 0.00 | 38 | 1013.0 |
| 20260502052725 | 10 | 44 | 0.0 | 0.0 | 0.00 | 0.00 | 0.00 | 38 | 1013.0 |
| 20260502052225 | 10 | 44 | 0.0 | 0.0 | 0.00 | 0.00 | 0.00 | 37 | 1013.0 |
| 20260502051725 | 11 | 44 | 0.0 | 0.0 | 0.00 | 0.00 | 0.00 | 37 | 1013.0 |
| 20260502051225 | 11 | 44 | 0.0 | 0.0 | 0.00 | 0.00 | 0.00 | 37 | 1013.0 |
| 20260502050725 | 11 | 44 | 0.0 | 0.0 | 0.00 | 0.00 | 0.00 | 36 | 1013.1 |
| 20260502050225 | 11 | 44 | 0.0 | 0.0 | 0.00 | 0.00 | 0.00 | 36 | 1013.0 |
| 20260502045725 | 11 | 44 | 0.0 | 0.0 | 0.00 | 0.00 | 0.00 | 36 | 1013.1 |
| 20260502045225 | 11 | 44 | 0.0 | 0.0 | 0.00 | 0.00 | 0.00 | 36 | 1013.0 |
| 20260502044725 | 11 | 44 | 0.0 | 0.0 | 0.00 | 0.00 | 0.00 | 37 | 1013.1 |
| 20260502044225 | 11 | 44 | 0.0 | 0.0 | 0.00 | 0.00 | 0.00 | 37 | 1013.1 |
| 20260502043725 | 11 | 44 | 0.0 | 0.0 | 0.00 | 0.00 | 0.00 | 37 | 1013.0 |
| 20260502043225 | 11 | 44 | 0.0 | 0.0 | 0.00 | 0.00 | 0.00 | 37 | 1013.1 |
| 20260502042725 | 11 | 44 | 0.0 | 0.0 | 0.00 | 0.00 | 0.00 | 37 | 1013.0 |
| 20260502042225 | 11 | 44 | 0.0 | 0.0 | 0.00 | 0.00 | 0.00 | 37 | 1013.0 |
| 20260502041725 | 11 | 44 | 0.0 | 0.0 | 0.00 | 0.00 | 0.00 | 37 | 1013.0 |
| 20260502041225 | 11 | 44 | 0.0 | 0.0 | 0.00 | 0.00 | 0.00 | 37 | 1013.0 |
| 20260502040725 | 11 | 44 | 0.0 | 0.0 | 0.00 | 0.00 | 0.00 | 36 | 1012.8 |
| 20260502040225 | 11 | 44 | 0.0 | 0.0 | 0.00 | 0.00 | 0.00 | 36 | 1012.8 |
| 20260502035725 | 11 | 44 | 0.0 | 0.0 | 0.00 | 0.00 | 0.00 | 35 | 1012.7 |
| 20260502035225 | 11 | 44 | 0.0 | 0.0 | 0.00 | 0.00 | 0.00 | 35 | 1012.7 |
| 20260502034725 | 12 | 44 | 0.0 | 0.0 | 0.00 | 0.00 | 0.00 | 35 | 1012.6 |
| 20260502034225 | 12 | 44 | 0.0 | 1.6 | 0.00 | 0.00 | 0.00 | 35 | 1012.6 |
| 20260502033725 | 12 | 44 | 0.0 | 4.8 | 0.00 | 0.00 | 0.00 | 35 | 1012.5 |
| 20260502033225 | 12 | 44 | 0.0 | 0.0 | 0.00 | 0.00 | 0.00 | 34 | 1012.5 |
| 20260502032725 | 12 | 44 | 0.0 | 0.0 | 0.00 | 0.00 | 0.00 | 35 | 1012.4 |
| 20260502032225 | 12 | 44 | 0.0 | 0.0 | 0.00 | 0.00 | 0.00 | 35 | 1012.3 |
| 20260502031725 | 12 | 44 | 0.0 | 0.0 | 0.00 | 0.00 | 0.00 | 34 | 1012.3 |
| 20260502031225 | 12 | 44 | 0.0 | 3.2 | 0.00 | 0.00 | 0.00 | 34 | 1012.2 |
| 20260502030725 | 12 | 44 | 0.0 | 1.6 | 0.00 | 0.00 | 0.00 | 35 | 1012.1 |
| 20260502030225 | 12 | 44 | 0.0 | 0.0 | 0.00 | 0.00 | 0.00 | 35 | 1012.0 |
| 20260502025725 | 12 | 44 | 0.0 | 0.0 | 0.00 | 0.00 | 0.00 | 35 | 1011.9 |
| 20260502025225 | 12 | 44 | 0.0 | 0.0 | 0.00 | 0.00 | 0.00 | 34 | 1011.9 |
| 20260502024725 | 12 | 44 | 0.0 | 0.0 | 0.00 | 0.00 | 0.00 | 34 | 1011.8 |
| 20260502024225 | 13 | 44 | 0.0 | 0.0 | 0.00 | 0.00 | 0.00 | 34 | 1011.8 |
| 20260502023725 | 13 | 44 | 0.0 | 0.0 | 0.00 | 0.00 | 0.00 | 34 | 1011.7 |
| 20260502023225 | 13 | 44 | 0.0 | 3.2 | 0.00 | 0.00 | 0.00 | 33 | 1011.8 |
| 20260502022725 | 13 | 44 | 0.0 | 6.4 | 0.00 | 0.00 | 0.00 | 32 | 1011.8 |
| 20260502022225 | 13 | 44 | 0.0 | 0.0 | 0.00 | 0.00 | 0.00 | 31 | 1011.8 |
| 20260502021725 | 13 | 44 | 0.0 | 0.0 | 0.00 | 0.00 | 0.00 | 31 | 1011.7 |
| 20260502021225 | 13 | 44 | 0.0 | 1.6 | 0.00 | 0.00 | 0.00 | 31 | 1011.7 |
| 20260502020725 | 14 | 44 | 1.6 | 4.8 | 0.00 | 0.00 | 0.00 | 30 | 1011.7 |
| 20260502020225 | 14 | 44 | 1.6 | 9.7 | 0.00 | 0.00 | 0.00 | 30 | 1011.6 |
| 20260502015725 | 14 | 45 | 1.6 | 6.4 | 0.00 | 0.00 | 0.00 | 30 | 1011.7 |
| 20260502015225 | 15 | 45 | 1.6 | 6.4 | 0.00 | 0.00 | 0.00 | 29 | 1011.6 |
| 20260502014725 | 15 | 45 | 1.6 | 6.4 | 0.00 | 0.00 | 0.00 | 30 | 1011.6 |
| 20260502014225 | 15 | 45 | 1.6 | 9.7 | 0.00 | 0.00 | 0.00 | 29 | 1011.5 |
| 20260502013725 | 15 | 46 | 1.6 | 4.8 | 0.00 | 0.00 | 0.00 | 29 | 1011.5 |